Weather History for Carlsbad, NM

Change the Weather History Date:

Tuesday, October 15, 2013

  Actual Average Record
Temperature  
Mean Temperature 60 °F -  
Max Temperature 66 °F 78 °F 94 °F (1968)
Min Temperature 54 °F 48 °F 34 °F (1966)
Degree Days  
Heating Degree Days 4    
Growing Degree Days 10 (Base 50)    
Moisture  
Dew Point 39 °F    
Average Humidity 49    
Maximum Humidity 70    
Minimum Humidity 30    
Precipitation  
Precipitation 0.00 in - - ()
Sea Level Pressure  
Sea Level Pressure 29.97 in    
Wind  
Wind Speed 10 mph (North)    
Max Wind Speed 20 mph    
Max Gust Speed 23 mph    
Visibility 10 miles    
Events      
Averages and records for this station are not official NWS values.
T = Trace of Precipitation, MM = Missing Value Source: NWS Daily Summary

Daily Weather History Graph

Daily Weather History Graph

Search for Another Location

Airport:

Trip Planner

Search our weather history database for the weather conditions in past years. The results will help you decide how hot, cold, wet, or windy it might be!

Date:

Astronomy

Oct. 15, 2013 Rise Set
Actual Time 7:00 AM MDT 6:23 PM MDT
Civil Twilight 6:36 AM MDT 6:48 PM MDT
Nautical Twilight 6:07 AM MDT 7:17 PM MDT
Astronomical Twilight 5:39 AM MDT 7:45 PM MDT
Moon 4:21 PM MDT (10/15) 3:37 AM MDT (10/15)
Length of Visible Light 12h 12m
Length of Day
11h 23m
Waxing Gibbous, 88% of the Moon is Illuminated
Oct 15
Waxing Gibbous
Oct 18
Full
Oct 26
Last Quarter
Nov 3
New
Nov 9
First Quarter

Hourly Weather History & Observations

Time (MDT) Temp. Dew Point Humidity Pressure Visibility Wind Dir Wind Speed Gust Speed Precip Events Conditions
12:53 AM 64.0 °F 53.1 °F 67% 29.83 in 10.0 mi WNW 5.8 mph - N/A   Clear
1:53 AM 63.0 °F 53.1 °F 70% 29.84 in 10.0 mi WSW 8.1 mph - N/A   Clear
2:53 AM 64.9 °F 51.1 °F 61% 29.84 in 10.0 mi WSW 8.1 mph - N/A   Clear
3:53 AM 66.0 °F 48.0 °F 52% 29.83 in 10.0 mi NW 12.7 mph - N/A   Clear
4:53 AM 63.0 °F 39.9 °F 43% 29.86 in 10.0 mi WNW 8.1 mph - N/A   Partly Cloudy
5:53 AM 64.0 °F 32.0 °F 30% 29.88 in 10.0 mi NW 16.1 mph - N/A   Mostly Cloudy
6:53 AM 60.1 °F 39.0 °F 46% 29.92 in 10.0 mi North 16.1 mph - N/A   Partly Cloudy
7:53 AM 57.9 °F 41.0 °F 53% 29.99 in 10.0 mi North 13.8 mph - N/A   Overcast
8:53 AM 57.0 °F 39.0 °F 51% 30.02 in 10.0 mi NNW 19.6 mph - N/A   Clear
9:53 AM 55.0 °F 35.1 °F 47% 30.06 in 10.0 mi NNW 19.6 mph - N/A   Partly Cloudy
10:53 AM 57.0 °F 35.1 °F 44% 30.05 in 10.0 mi NNW 17.3 mph 23.0 mph N/A   Mostly Cloudy
11:53 AM 59.0 °F 34.0 °F 39% 30.04 in 10.0 mi NNW 11.5 mph - N/A   Mostly Cloudy
12:53 PM 60.1 °F 34.0 °F 38% 30.01 in 10.0 mi North 9.2 mph - N/A   Overcast
1:53 PM 60.1 °F 33.1 °F 36% 29.99 in 10.0 mi NW 11.5 mph - N/A   Overcast
2:53 PM 60.1 °F 33.1 °F 36% 29.97 in 10.0 mi NNW 9.2 mph - N/A   Overcast
3:53 PM 60.1 °F 33.1 °F 36% 29.96 in 10.0 mi NNW 5.8 mph - N/A   Overcast
4:53 PM 60.1 °F 34.0 °F 38% 29.96 in 10.0 mi NW 3.5 mph - N/A   Overcast
5:53 PM 59.0 °F 37.9 °F 46% 29.96 in 10.0 mi East 9.2 mph - N/A   Overcast
6:53 PM 57.0 °F 39.0 °F 51% 29.99 in 10.0 mi East 9.2 mph - N/A   Overcast
7:53 PM 55.9 °F 39.9 °F 55% 30.02 in 10.0 mi East 5.8 mph - N/A   Overcast
8:53 PM 55.9 °F 39.9 °F 55% 30.04 in 10.0 mi East 6.9 mph - N/A   Overcast
9:53 PM 55.9 °F 39.9 °F 55% 30.05 in 10.0 mi East 8.1 mph - N/A   Overcast
10:53 PM 55.0 °F 39.9 °F 57% 30.06 in 10.0 mi East 8.1 mph - N/A   Overcast
11:53 PM 54.0 °F 41.0 °F 62% 30.06 in 10.0 mi East 5.8 mph - N/A   Overcast